Chongqing, China

11:53 AM CST on November 14, 2019 (GMT +0800)
Jiangbei

Weather History for ZUCK - September, 2019

Change the Weather History Date:

Friday, September 13, 2019

  Actual Average (WUND) Record (WUND)
Temperature  
Mean Temperature 84 °F -  
Max Temperature 96 °F - - (-1)
Min Temperature 71 °F - - (-1)
Cooling Degree Days 18    
Growing Degree Days 34 (Base 50)    
Moisture  
Dew Point 68 °F    
Average Humidity 54    
Maximum Humidity 65    
Minimum Humidity 36    
Precipitation  
Precipitation 0.00 in - - ()
Sea Level Pressure  
Sea Level Pressure 29.74 in    
Wind  
Wind Speed 8 mph ()    
Max Wind Speed 20 mph    
Max Gust Speed -    
Visibility 11.7 miles    
Events      
Averages and records for this station are not official NWS values.
T = Trace of Precipitation, MM = Missing Value Source: Averaged Metar Reports

Daily Weather History Graph

Daily Weather History Graph

Search for Another Location

Airport or City:

Astronomy

Sep. 13, 2019 Rise Set
Actual Time 6:36 AM CST 7:02 PM CST
Civil Twilight 6:12 AM CST 7:25 PM CST
Nautical Twilight 5:44 AM CST 7:54 PM CST
Astronomical Twilight 5:16 AM CST 8:22 PM CST
Moon 6:52 PM CST (9/13) 5:32 AM CST (9/13)
Length of Visible Light 13h 13m
Length of Day
12h 25m
Waxing Gibbous, 99% of the Moon is Illuminated
Sep 13
Waxing Gibbous
Sep 14
Full
Sep 22
Last Quarter
Sep 29
New
Oct 6
First Quarter

Hourly Weather History & Observations

Time (CST) Temp. Heat Index Dew Point Humidity Pressure Visibility Wind Dir Wind Speed Gust Speed Precip Events Conditions
12:00 AM 87.8 °F 91.4 °F 68.0 °F 52% 29.74 in - East 11.2 mph - N/A   Clear
1:00 AM 87.8 °F 91.4 °F 68.0 °F 52% 29.74 in - ESE 8.9 mph - N/A   Clear
2:00 AM 85 °F - 71 °F 54% 29.62 in 11 mi NW 4.5 mph - -  
2:00 AM 86.0 °F 89.4 °F 68.0 °F 55% 29.71 in - East 6.7 mph - N/A   Clear
3:00 AM 86.0 °F 89.4 °F 68.0 °F 55% 29.71 in - East 6.7 mph - N/A   Clear
5:00 AM 83 °F - 71 °F 58% 29.62 in 11 mi WNW 2.2 mph - -  
5:00 AM 84.2 °F 87.3 °F 68.0 °F 58% 29.71 in - ENE 8.9 mph - N/A   Clear
6:00 AM 84.2 °F 87.3 °F 68.0 °F 58% 29.74 in - ENE 8.9 mph - N/A   Clear
7:00 AM 84.2 °F 87.3 °F 68.0 °F 58% 29.74 in - ENE 6.7 mph - N/A   Clear
8:00 AM 84 °F - 70 °F 54% 29.66 in 10 mi WNW 4.5 mph - -   Partly Cloudy
8:00 AM 86.0 °F 89.4 °F 68.0 °F 55% 29.74 in - NE 6.7 mph - N/A   Clear
9:00 AM 87.8 °F 92.6 °F 69.8 °F 55% 29.77 in - ENE 6.7 mph - N/A   Clear
10:00 AM 89.6 °F 94.7 °F 69.8 °F 52% 29.77 in - East 8.9 mph - N/A   Clear
11:00 AM 93 °F - 69 °F 36% 29.68 in 17 mi East 4.5 mph - -   Partly Cloudy
11:00 AM 91.4 °F 96.8 °F 69.8 °F 49% 29.77 in - East 6.7 mph - N/A   Clear
12:00 PM 91.4 °F 96.8 °F 69.8 °F 49% 29.77 in 6.2 mi South 6.7 mph - N/A   Partly Cloudy
1:00 PM 93.2 °F 100.5 °F 71.6 °F 49% 29.74 in 6.2 mi SE 4.5 mph - N/A   Scattered Clouds
2:00 PM 96 °F - 72 °F 37% 29.64 in 15 mi NNW 4.5 mph - -   Partly Cloudy
2:00 PM 95.0 °F 103.2 °F 71.6 °F 47% 29.74 in 6.2 mi Variable 6.7 mph - N/A   Scattered Clouds
3:00 PM 93.2 °F 102.4 °F 73.4 °F 52% 29.71 in - NW 11.2 mph - N/A   Clear
4:00 PM 91.4 °F 100.1 °F 73.4 °F 55% 29.71 in - West 13.4 mph - N/A   Clear
5:00 PM 91 °F - 70 °F 41% 29.64 in 16 mi NNW 8.9 mph - -   Mostly Cloudy
5:00 PM 87.8 °F 93.8 °F 71.6 °F 58% 29.71 in - NW 15.7 mph - N/A   Clear
6:00 PM 84.2 °F 87.3 °F 68.0 °F 58% 29.74 in - WNW 17.9 mph - N/A   Clear
7:00 PM 78.8 °F - 64.4 °F 61% 29.77 in - WNW 17.9 mph - N/A   Clear
8:00 PM 78 °F - 63 °F 50% 29.77 in 13 mi NNW 6.7 mph - -   Mostly Cloudy
8:00 PM 75.2 °F - 62.6 °F 65% 29.80 in - WNW 20.1 mph - N/A   Clear
9:00 PM 73.4 °F - 60.8 °F 65% 29.86 in - WNW 17.9 mph - N/A   Clear
10:00 PM 71.6 °F - 59.0 °F 64% 29.89 in - West 13.4 mph - N/A   Clear
11:00 PM 74 °F - 59 °F 50% 29.85 in 17 mi NW 6.7 mph - -  
11:00 PM 71.6 °F - 59.0 °F 64% 29.92 in - West 13.4 mph - N/A   Clear